Location: *
(57.8420°S, 159.8600°W)
Time: 03:01:36
(UTC+00:00)

Envisat - Pass Details

Date: 18 May 2021
Orbit: 764 x 766 km, 98.1° (Epoch: 23 June)

Event Time Altitude Azimuth Distance (km) Brightness Sun altitude
Rises 03:38:51 0° 161° (SSE) 3,280 5.9 -9.2°
Reaches altitude 10° 03:41:21 10° 153° (SSE) 2,347 5.1 -9.5°
Maximum altitude 03:46:10 38° 84° (E) 1,177 3.5 -10.1°
Drops below altitude 10° 03:50:57 10° 16° (NNE) 2,323 5.6 -10.7°
Sets 03:53:24 0° 8° (N) 3,242 6.4 -11.0°
